Regional Weather Roundup
Issued by NWS

Home | Current Version | Previous Version | Graphics & Text | Print | Product List | Glossary On
Versions: 1 2 3 4 5 6 7 8 9 10 11 12 13 14 15 16 17 18 19 20 21 22 23 24 25 26 27 28 29 30 31 32 33 34 35 36 37 38 39 40 41 42 43 44 45 46 47 48 49 50
000
ASUS43 KOAX 201002
RWRNE

WEATHER ROUNDUP FOR NEBRASKA
NATIONAL WEATHER SERVICE OMAHA NE
500 AM CDT WED SEP 20 2017

NOTES: SATELLITE DATA IS BEING USED TO AUGMENT CLOUD COVER ABOVE
       12000 FEET.
       "FAIR" INDICATES FEW OR NO CLOUDS BELOW 12,000 FEET WITH NO
       SIGNIFICANT WEATHER AND/OR OBSTRUCTIONS TO VISIBILITY.


NEZ001>004-019>022-054>056-201100-
NEBRASKA PANHANDLE

CITY           SKY/WX    TMP DP  RH WIND       PRES   REMARKS
SCOTTSBLUFF    CLOUDY    49  33  54 NW8       29.88R
ALLIANCE       CLEAR     51  32  48 W18       29.85R
CHADRON        CLEAR     43  33  68 SW8       29.83S
GORDON         FAIR      45  35  66 W7        29.83R
KIMBALL        CLOUDY    52  28  39 NW22G29   29.89R
SIDNEY         CLEAR     53  28  38 NW14      29.89R
$$

NEZ057>060-069>072-079>082-201100-
SOUTHWEST NEBRASKA

CITY           SKY/WX    TMP DP  RH WIND       PRES   REMARKS
NORTH PLATTE   CLEAR     43  38  82 NW8       29.86R
IMPERIAL       CLOUDY    48  34  58 NW7       29.88S
LEXINGTON      CLEAR     47  43  86 NW7       29.83R
MCCOOK         CLOUDY    48  37  65 NW12      29.86R
OGALLALA       CLOUDY    44  34  68 CALM      29.88R
$$

NEZ005>010-023>029-035>040-094-201100-
NORTH CENTRAL NEBRASKA

CITY           SKY/WX    TMP DP  RH WIND       PRES   REMARKS
VALENTINE      CLOUDY    54  45  71 CALM      29.83R
AINSWORTH      CLOUDY    51  46  83 CALM      29.83S
BROKEN BOW     CLEAR     51  43  74 N7        29.83R
O`NEILL        CLEAR     52  49  87 NW9       29.80R
ORD            CLEAR     50  45  83 NW3       29.79R
THEDFORD       CLOUDY    47  42  84 CALM      29.86R
$$

NEZ041-046>049-061>064-073>077-083>087-201100-
SOUTH CENTRAL NEBRASKA

CITY           SKY/WX    TMP DP  RH WIND       PRES   REMARKS
GRAND ISLAND   CLEAR     55  51  86 NW5       29.78R
AURORA         CLEAR     57  50  76 NW7       29.76R
HASTINGS       CLEAR     56  48  74 N6        29.78R
HEBRON         CLEAR     64  51  62 W3        29.71R
HOLDREGE       CLEAR     52  46  80 NW7       29.81R
KEARNEY        CLEAR     54  48  80 NW8       29.81R
YORK           CLEAR     59  52  77 NW8       29.75R
$$

NEZ011>018-030>034-042>045-201100-
NORTHEAST NEBRASKA

CITY           SKY/WX    TMP DP  RH WIND       PRES   REMARKS
NORFOLK        PTCLDY    57  53  86 W3        29.73R
ALBION         CLEAR     54  51  89 N3        29.76R
BLAIR          CLOUDY    69  59  71 N10       29.67R
COLUMBUS       PTCLDY    60  53  77 NW5       29.75R
FREMONT        CLOUDY    67  52  60 N5        29.71R
TEKAMAH        CLOUDY    65  56  72 N10       29.68R
WAYNE          CLOUDY    59  56  91 NW9       29.73R
$$

NEZ050>053-065>068-078-088>093-201100-
SOUTHEAST NEBRASKA

CITY           SKY/WX    TMP DP  RH WIND       PRES   REMARKS
LINCOLN        CLEAR     68  54  60 N18       29.68R
OMAHA EPPLEY   MOCLDY    75  69  81 S3        29.64S
BEATRICE       CLEAR     69  60  72 NW7       29.68R
FALLS CITY     PTCLDY    77  69  76 SW8G17    29.68R
NEBRASKA CITY  PTCLDY    74  73  95 S9        29.66F
PLATTSMOUTH    CLEAR     73  71  92 SE7       29.65S
$$

NEZ044-045-051>053-067-201100-
OMAHA AREA

CITY           SKY/WX    TMP DP  RH WIND       PRES   REMARKS
OMAHA EPPLEY   MOCLDY    75  69  81 S3        29.64S
BLAIR          CLOUDY    69  59  71 N10       29.67R
FREMONT        CLOUDY    67  52  60 N5        29.71R
MILLARD        CLOUDY    76  72  86 CALM      29.64S
OFFUTT AFB     PTCLDY    72  69  90 SE5       29.64R
PLATTSMOUTH    CLEAR     73  71  92 SE7       29.65S
WAHOO          FAIR      65  54  68 N12       29.69R
$$




USA.gov is the U.S. government's official web portal to all federal, state and local government web resources and services.